Location: Praha
(50.0830°N, 14.4670°E)
Time: 21:30:33
(UTC+01:00)

ISS - Pass Details

Date: 25 November 2021
Orbit: 417 x 423 km, 51.6° (Epoch: 28 November)

Event Time Altitude Azimuth Distance (km) Brightness Sun altitude
Rises 18:35:35 0° 265° (W) 2,377 1.6 -23.2°
Reaches altitude 10° 18:37:42 10° 268° (W) 1,513 0.2 -23.5°
Enters shadow 18:40:06 42° 282° (WNW) 619 -2.5 -23.9°
